Погода в Сучжоу

Китай     31°18′31″N   120°35′51″E
темп.,
°C
ветер,
м/с
пор.,
м/с
влажн.,
%
обл.,
%
осадки,
мм/ч
давл.,
гПа
погр.,
м
11 апреля, вс
вс1123:00+13в51184100 0.0 1026457
02:00+13в51286100 0.0 1024502
05:00+14вюв51286100 0.0 1024572
08:00+14вюв51186100 0.1 1024572
11:00+14вюв51195100 1.4 1023466
14:00+15вюв51197100 3.6 1020443
17:00+15юв31098100 1.2 1019501
20:00+15ююв3899100 4.3 1019364
12 апреля, пн
пн1223:00+15ю3799100 6.9 1019308
02:00+14зюз2599100 10.6 1017246
05:00+14сз2598100 4.4 1016241
08:00+14сз3696100 4.7 1017296
11:00+15зсз3589100 0.1 1017303
14:00+15з4792100 0.3 1015410
17:00+15з4797100 2.9 1015347
20:00+14з3796100 5.3 1017241
13 апреля, вт
вт1323:00+14зсз379554 0.0 1018209
02:00+14сз369643 0.0 1018164
05:00+13ссз34965 0.0 1018102
08:00+16ссз23845 0.0 1019292
11:00+19с136892 0.1 10191101
14:00+20св3465100 0.5 1018986
17:00+18всв4769100 0.1 1018430
20:00+14всв4777100 0.1 1020382
14 апреля, ср
ср1423:00+12всв4683100 0.0 1022326
02:00+11всв4789100 0.0 1021326
05:00+10всв37907 0.0 1022353
08:00+12всв576671 0.0 1023649
11:00+16всв4549100 0.0 1023972
14:00+17всв4444100 0.0 10211016
17:00+15в4453100 0.0 1021692
20:00+12вюв4758100 0.0 1021331
15 апреля, чт
чт1523:00+11вюв4766100 0.0 1022393
02:00+9вюв4874100 0.0 1020274
05:00+9вюв497876 0.0 1019282
08:00+13юв58640 0.0 1019573
11:00+18ююв5648100 0.0 1018868
14:00+19ю4553100 0.0 1016932
17:00+17ююв5666100 0.0 1015588
20:00+14юв3574100 0.0 1018184